User: anonymous   Login
Location: Niverville
(49.6028°N, 97.0419°W)
Time: 20:33:28
(UTC-05:00)
Language:

BREEZE-M DEB (TANK) - Orbit

View from above orbital plane
View from above orbital plane
View from above satellite
View from above satellite

Ground track
Ground track

The orbit data is extracted from the following two-line orbital elements,

1 33374U 08044B   17085.80584023 +.00001062 +00000-0 +35732-3 0  9999
2 33374 049.4880 341.6669 5445085 034.9952 350.9516 04.86854861149994
Epoch (UTC): 26 March 2017 19:20:24
Eccentricity: 0.5445085
inclination: 49.4880°
perigee height: 320 km
apogee height: 16334 km
right ascension of ascending node: 341.6669°
argument of perigee: 34.9952°
revolutions per day: 4.86854861
mean anomaly at epoch: 350.9516°
orbit number at epoch: 14999

The dashed part of the orbit path shows where the satellite is in the earth's shadow,  

DLR